#timestamp,LO_Frequency,Hit,StdDev 
1581937215.7,286046975.1,N
1581937235.5,286046975.0,N
1581937255.4,286046980.2,N
1581937275.2,286046986.2,N
1581937295.0,286046990.4,N
1581937296.0,286046990.4,N
1581937315.8,286046995.1,N
1581937335.6,286047003.7,N
1581937355.5,286047023.8,N
1581937375.3,286047037.2,N
1581937395.1,286047036.1,N
1581937415.9,286047034.8,N
1581937435.7,286047035.8,N
1581937455.6,286047028.2,N
1581937475.4,286047016.7,N
1581937495.2,286047011.1,N
1581937515.1,286047006.9,N
1581937516.0,286047006.9,N
1581937535.8,286047007.6,N
1581937555.7,286047004.8,N
1581937575.5,286047001.3,N
1581937595.3,286046997.6,N
1581937615.2,286046993.6,N
1581937635.0,286046994.8,N
1581937635.9,286046994.8,N
1581937655.7,286046990.9,N
1581937675.6,286046987.1,N
1581937695.4,286046983.7,N
1581937715.3,286046983.3,N
1581937735.1,286046977.4,N
1581937736.0,286046977.4,N
1581937755.8,286046975.0,N
1581937775.7,286046976.8,N
1581937795.5,286046978.8,N
1581937815.3,286046980.5,N
1581937835.2,286046983.9,N
1581937855.0,286046989.8,N
1581937855.9,286046989.8,N
1581937875.8,286046987.9,N
1581937895.6,286046984.7,N
1581937915.4,286046985.1,N
1581937935.3,286046986.5,N
1581937955.1,286046995.4,N
1581937975.9,286047003.7,N
1581937995.7,286047001.0,N
1581938015.5,286046992.3,N
1581938035.4,286046991.6,N
1581938055.2,286046986.0,N
1581938075.0,286046982.3,N
1581938075.9,286046982.3,N
1581938095.8,286046986.5,N
1581938115.6,286046993.8,N
1581938135.5,286046999.6,N
1581938155.3,286046998.4,N
1581938175.1,286046998.8,N
1581938195.9,286046999.5,N
1581938215.7,286046996.3,N
1581938235.5,286046990.6,N
1581938255.4,286046990.2,N
1581938275.2,286046987.2,N
1581938295.1,286046983.0,N
1581938296.0,286046983.0,N
1581938315.8,286046980.3,N
1581938335.6,286046974.1,Y
1581938355.5,286046987.8,P
1581938375.3,286046984.6,P
1581938395.2,286046983.4,P
1581938415.9,286046982.9,Y
1581938435.7,286046997.4,P
1581938455.6,286046997.6,N
1581938475.4,286046993.9,N
1581938495.3,286046997.9,N
1581938515.1,286047011.8,N
1581938516.0,286047011.8,N
1581938535.8,286047018.3,N
1581938555.7,286047011.4,N
1581938575.5,286047010.4,N
1581938595.3,286047003.8,N
1581938615.2,286046999.3,N
1581938635.0,286046994.6,N
1581938635.9,286046994.6,N
1581938655.8,286046988.6,N
1581938675.6,286046985.4,N
1581938695.4,286046986.3,N
1581938715.3,286046982.7,N
1581938735.1,286046983.4,N
1581938755.8,286046983.4,N
1581938775.7,286046985.5,N
1581938795.5,286047004.3,N
1581938815.4,286047006.1,N
1581938835.2,286047008.4,N
1581938855.0,286047005.0,N
1581938855.9,286047005.0,N
1581938875.8,286046998.4,N
1581938895.6,286046992.7,N
1581938915.4,286046989.0,N
1581938935.3,286046985.9,N
1581938955.1,286046984.5,N
1581938975.9,286046986.7,N
1581938995.7,286046988.3,N
1581939015.5,286046988.6,N
1581939035.4,286046992.0,N
1581939055.2,286046996.9,N
1581939075.0,286046995.4,N
1581939075.9,286046995.4,N
1581939095.8,286046993.8,N
1581939115.6,286046990.6,N
1581939135.4,286046986.9,N
1581939155.3,286046991.5,N
1581939175.1,286047004.6,N
1581939195.9,286047018.5,N
1581939215.7,286047017.6,N
1581939235.6,286047011.3,N
1581939255.4,286047006.7,N
1581939275.2,286047000.3,N
1581939295.1,286046993.5,N
1581939296.0,286046993.5,N
1581939315.8,286046992.8,N
1581939335.6,286046988.6,N
1581939355.5,286046985.3,N
1581939375.3,286046989.4,N
1581939395.2,286046989.7,N
1581939415.9,286046986.3,N
1581939435.7,286046989.6,N
1581939455.6,286046989.7,N
1581939475.4,286046984.0,N
1581939495.3,286046984.6,N
1581939515.1,286046983.4,N
1581939516.0,286046983.4,N
1581939535.8,286046981.2,N
1581939555.7,286046979.0,N
1581939575.5,286046978.7,N
1581939595.3,286046983.6,N
1581939615.2,286046984.7,N
1581939635.0,286046988.4,N
1581939635.9,286046988.4,N
1581939655.8,286046985.8,N
1581939675.6,286046991.3,N
1581939695.4,286046993.5,N
1581939715.3,286046996.8,N
1581939735.1,286046994.9,N
1581939755.8,286046994.8,N
1581939775.7,286046991.2,N
1581939795.5,286046987.0,N
1581939815.4,286046981.0,Y
1581939835.2,286046991.6,P
1581939855.0,286046986.3,P
1581939855.9,286046986.3,P
1581939875.8,286046982.7,Y
1581939895.6,286046991.9,P
1581939915.5,286046990.8,P
1581939935.3,286046987.3,P
1581939955.1,286046985.9,Y
1581939975.9,286046995.4,P
1581939995.7,286047002.3,N
1581940015.5,286047000.0,N
1581940035.4,286047000.9,N
1581940055.2,286047000.3,N
1581940075.1,286046997.2,N
1581940076.0,286046997.2,N
1581940095.8,286046994.6,N
1581940115.6,286046994.5,N
1581940135.5,286046992.5,N
1581940155.3,286046993.9,N
1581940175.1,286046995.5,N
1581940195.9,286046996.2,N
1581940215.7,286046995.0,N
1581940235.6,286046998.9,N
1581940255.4,286046997.5,N
1581940275.2,286046995.2,N
1581940295.1,286046996.3,N
1581940296.0,286046996.3,N
1581940315.8,286046992.5,N
1581940335.6,286046988.5,Y
1581940355.5,286046991.4,P
1581940375.3,286046990.6,P
1581940395.2,286046990.9,P
1581940415.9,286046994.2,N
1581940435.7,286046996.4,N
1581940455.6,286046993.9,N
1581940475.4,286046994.6,N
1581940495.3,286046992.0,Y
1581940515.1,286046997.3,P
1581940516.0,286046997.3,N
1581940535.8,286046995.2,N
1581940555.7,286046996.0,N
1581940575.5,286047000.4,N
1581940595.3,286047012.2,Y
1581940615.2,286047014.3,P
1581940635.0,286047015.0,N
1581940635.9,286047015.0,N
1581940655.8,286047013.0,N
1581940675.6,286047015.1,N
1581940695.4,286047013.8,N
1581940715.3,286047013.8,N
1581940735.1,286047013.8,N
1581940755.8,286047012.6,N
1581940775.7,286047011.7,N
1581940795.5,286047009.0,N
